Du Bois, PA

8:36 AM EST on December 06, 2019 (GMT -0500)
Du Bois-Jefferson County

Weather History for KDUJ - October, 2019

Change the Weather History Date:

Friday, October 4, 2019

  Actual Average Record
Temperature  
Mean Temperature 47 °F 53 °F  
Max Temperature 57 °F 63 °F 82 °F (2007)
Min Temperature 36 °F 43 °F 24 °F (1974)
Degree Days  
Heating Degree Days 18 12  
Month to date heating degree days 18 47  
Since 1 July heating degree days 121 293  
Cooling Degree Days 0 0  
Month to date cooling degree days 23 0  
Year to date cooling degree days 430 360  
Moisture  
Dew Point 46 °F    
Average Humidity 79    
Maximum Humidity 94    
Minimum Humidity 62    
Precipitation  
Precipitation 0.00 in 0.11 in 1.07 in (1983)
Month to date precipitation 0.44 0.42  
Year to date precipitation 36.84 33.66  
Sea Level Pressure  
Sea Level Pressure 30.18 in    
Wind  
Wind Speed 8 mph ()    
Max Wind Speed 16 mph    
Max Gust Speed 22 mph    
Visibility 10.0 miles    
Events      
T = Trace of Precipitation, MM = Missing Value Source: Averaged Metar Reports

Daily Weather History Graph

Daily Weather History Graph

Search for Another Location

Airport or City:

Astronomy

Oct. 04, 2019 Rise Set
Actual Time 7:15 AM EDT 6:52 PM EDT
Civil Twilight 6:47 AM EDT 7:20 PM EDT
Nautical Twilight 6:15 AM EDT 7:52 PM EDT
Astronomical Twilight 5:43 AM EDT 8:24 PM EDT
Moon 1:48 PM EDT (10/4) 11:17 PM EDT (10/4)
Length of Visible Light 12h 32m
Length of Day
11h 37m
Waxing Crescent, 39% of the Moon is Illuminated
Oct 4
Waxing Crescent
Oct 5
First Quarter
Oct 13
Full
Oct 21
Last Quarter
Oct 27
New

Hourly Weather History & Observations

Time (EDT) Temp. Windchill Dew Point Humidity Pressure Visibility Wind Dir Wind Speed Gust Speed Precip Events Conditions
12:53 AM 57.9 °F - 52.0 °F 81% 30.03 in 10.0 mi NNW 11.5 mph 18.4 mph N/A   Mostly Cloudy
1:53 AM 55.9 °F - 52.0 °F 87% 30.03 in 10.0 mi NW 4.6 mph - N/A   Mostly Cloudy
2:43 AM 55.0 °F - 51.1 °F 86% 30.06 in 10.0 mi West 3.5 mph - N/A   Mostly Cloudy
2:53 AM 54.0 °F - 51.1 °F 90% 30.03 in 10.0 mi Calm Calm - N/A   Mostly Cloudy
3:53 AM 55.0 °F - 51.1 °F 86% 30.04 in 10.0 mi West 4.6 mph - N/A   Overcast
4:53 AM 54.0 °F - 51.1 °F 90% 30.04 in 10.0 mi West 5.8 mph - N/A   Overcast
5:34 AM 55.0 °F - 51.1 °F 86% 30.08 in 10.0 mi WNW 12.7 mph - N/A   Mostly Cloudy
5:43 AM 54.0 °F - 51.1 °F 90% 30.08 in 10.0 mi WNW 8.1 mph - N/A   Mostly Cloudy
5:53 AM 54.0 °F - 51.1 °F 90% 30.07 in 10.0 mi WNW 6.9 mph - N/A   Mostly Cloudy
6:15 AM 54.0 °F - 51.1 °F 90% 30.10 in 10.0 mi WNW 9.2 mph - N/A   Mostly Cloudy
6:22 AM 54.0 °F - 51.1 °F 90% 30.10 in 10.0 mi WNW 9.2 mph - N/A   Overcast
6:32 AM 54.0 °F - 51.1 °F 90% 30.10 in 10.0 mi WNW 10.4 mph - N/A   Overcast
6:49 AM 53.6 °F - 51.8 °F 94% 30.11 in 10.0 mi WNW 10.4 mph - N/A   Overcast
6:53 AM 54.0 °F - 50.0 °F 86% 30.09 in 10.0 mi NW 9.2 mph - N/A   Overcast
7:37 AM 53.1 °F - 48.9 °F 86% 30.13 in 10.0 mi WNW 8.1 mph - N/A   Scattered Clouds
7:53 AM 53.1 °F - 48.9 °F 86% 30.12 in 10.0 mi WNW 6.9 mph - N/A   Mostly Cloudy
8:53 AM 54.0 °F - 48.0 °F 80% 30.14 in 10.0 mi NNW 10.4 mph 18.4 mph N/A   Mostly Cloudy
9:15 AM 54.0 °F - 48.0 °F 80% 30.17 in 10.0 mi NW 11.5 mph 20.7 mph N/A   Mostly Cloudy
9:27 AM 55.0 °F - 48.9 °F 80% 30.17 in 10.0 mi WNW 10.4 mph - N/A   Mostly Cloudy
9:53 AM 55.0 °F - 48.0 °F 77% 30.17 in 10.0 mi NNW 12.7 mph 18.4 mph N/A   Mostly Cloudy
10:12 AM 55.9 °F - 48.0 °F 75% 30.18 in 10.0 mi North 10.4 mph - N/A   Mostly Cloudy
10:53 AM 55.9 °F - 48.0 °F 75% 30.19 in 10.0 mi North 15.0 mph 21.9 mph N/A   Overcast
11:53 AM 55.0 °F - 45.0 °F 69% 30.22 in 10.0 mi NNW 13.8 mph - N/A   Overcast
12:53 PM 54.0 °F - 44.1 °F 69% 30.24 in 10.0 mi North 9.2 mph 19.6 mph N/A   Overcast
1:53 PM 55.9 °F - 43.0 °F 62% 30.25 in 10.0 mi NNE 11.5 mph - N/A   Overcast
2:53 PM 54.0 °F - 43.0 °F 66% 30.25 in 10.0 mi NNE 11.5 mph - N/A   Mostly Cloudy
3:53 PM 54.0 °F - 42.1 °F 64% 30.26 in 10.0 mi North 9.2 mph 19.6 mph N/A   Overcast
4:53 PM 52.0 °F - 39.9 °F 63% 30.28 in 10.0 mi NNW 12.7 mph - N/A   Mostly Cloudy
5:48 PM 51.8 °F - 39.2 °F 62% 30.28 in 10.0 mi North 11.5 mph - N/A   Mostly Cloudy
5:53 PM 51.1 °F - 39.9 °F 66% 30.29 in 10.0 mi North 8.1 mph - N/A   Overcast
6:53 PM 48.0 °F - 39.0 °F 71% 30.30 in 10.0 mi North 11.5 mph - N/A   Overcast
7:53 PM 46.9 °F - 37.9 °F 71% 30.32 in 10.0 mi NNE 10.4 mph - N/A   Overcast
8:53 PM 44.1 °F 40.8 °F 36.0 °F 73% 30.34 in 10.0 mi NE 5.8 mph - N/A   Mostly Cloudy
9:53 PM 42.1 °F 37.7 °F 34.0 °F 73% 30.36 in 10.0 mi NE 6.9 mph - N/A   Clear
10:53 PM 41.0 °F 34.7 °F 34.0 °F 76% 30.37 in 10.0 mi NE 10.4 mph - N/A   Clear
11:53 PM 37.0 °F 33.3 °F 34.0 °F 89% 30.38 in 10.0 mi East 4.6 mph - N/A   Clear